Regional Weather Roundup
Issued by NWS

Home | Current Version | Previous Version | Text Only | Print | Product List | Glossary Off
Versions: 1 2 3 4 5 6 7 8 9 10 11 12 13 14 15 16 17 18 19 20 21 22 23 24 25 26 27 28 29 30 31 32 33 34 35 36 37 38 39 40 41 42 43 44 45 46 47 48 49 50

000
ASUS45 KBOU 230507
RWRCO

WEATHER ROUNDUP FOR COLORADO
NATIONAL WEATHER SERVICE DENVER/BOULDER CO
1100 PM MDT SUN OCT 22 2017

NOTE: "FAIR" INDICATES FEW OR NO CLOUDS BELOW 12000 FEET WITH NO
SIGNIFICANT WEATHER AND/OR OBSTRUCTIONS TO VISIBILITY.

COZ001>005-013-030-031-230600-
...NORTHWEST COLORADO...

CITY           SKY/WX    TMP DP  RH WIND       PRES   REMARKS
CRAIG          CLOUDY    44  30  57 CALM      30.40R
HAYDEN         CLOUDY    48  27  44 CALM      30.41S
MEEKER         FAIR      43  28  55 SE5       30.42S
RABBIT EARS PA CLOUDY    32  27  80 W15G33    30.48F WCI  22
STEAMBOAT SPGS CLOUDY    44  32  61 E3        30.40S
WALDEN         NOT AVBL
$$

COZ006>008-011-230600-
...WEST CENTRAL VALLEYS...

CITY           SKY/WX    TMP DP  RH WIND       PRES   REMARKS
GRAND JUNCTION FAIR      46  20  35 E6        30.41R
MONTROSE       FAIR      40  26  57 S6        30.47R
EAGLE          CLOUDY    42  27  55 E10       30.47R
RIFLE          FAIR      40  30  67 E5        30.44R
DELTA          FAIR      45  26  46 N5        30.44R
NUCLA          FAIR      46  19  34 E10       30.48R
$$

COZ017>023-064>068-230600-
...SOUTHWEST COLORADO...

CITY           SKY/WX    TMP DP  RH WIND       PRES   REMARKS
DURANGO        FAIR      36  21  54 NE7       30.42S
CORTEZ         FAIR      38  22  52 NE7       30.44S
PAGOSA SPRINGS FAIR      34  18  52 CALM      30.48S
TELLURIDE      FAIR      40  18  41 SE5       30.58S
WOLF CREEK PAS FAIR      36  19  51 W8        30.67F
$$

COZ009-010-012-014-032>034-037-058>063-230600-
...CENTRAL COLORADO...

CITY           SKY/WX    TMP DP  RH WIND       PRES   REMARKS
ASPEN          FAIR      33  28  81 SW9       30.49R WCI  25
BUENA VISTA    FAIR      49  17  28 W12       30.38R
COPPER MTN     CLOUDY    34  23  64 MISG      30.59S
BERTHOUD PASS  MOCLDY    28  19  69 NW41G56   30.49F WCI  11
COTTONWOOD PAS FAIR      50  19  29 W18G33    30.43S
GUNNISON       FAIR      36  21  54 CALM      30.49R
KREMMLING      CLOUDY    54  21  28 W10       30.43R
LEADVILLE      FAIR      38  17  42 N12       30.49S
MONARCH PASS   FAIR      32  16  51 W49G56    30.63F WCI  14
SALIDA         FAIR      52  18  26 NW5       30.43S
SUNLIGHT       FAIR      32  19  59 SW12G21   30.61S WCI  23
WILKERSON PASS FAIR      37  19  48 NW15G28   30.49S
$$

COZ069>075-230600-
...SAN LUIS VALLEY/SANGRE DE CRISTO MOUNTAINS...

CITY           SKY/WX    TMP DP  RH WIND       PRES   REMARKS
ALAMOSA        FAIR      30  18  60 S5        30.42R WCI  25
DEL NORTE      FAIR      35  19  52 W7        30.45S WCI  29
LA VETA PASS   FAIR      41  14  33 S29G40    30.57S
SAGUACHE       FAIR      43  19  39 CALM      30.44F
$$

COZ035-036-038>040-230600-
...NORTHERN COLORADO FRONT RANGE...

CITY           SKY/WX    TMP DP  RH WIND       PRES   REMARKS
DENVER INTL AP MOCLDY    60  25  26 NW12      30.15R
DMNS CITY PARK   N/A     65  23  20 W12G20    30.14S
AURORA         MOCLDY    58  27  30 NW12      30.17R
FRONT RANGE AP FAIR      59  28  31 W12G18    30.16R
ERIE MUNI ARPT FAIR      64  23  20 W9G40     30.19S
BOULDER MUN AP FAIR      59  25  27 CALM      30.13F
CENTENNIAL     MOCLDY    59  25  27 NW12G17   30.18R
BROOMFIELD     FAIR      64  25  22 W23G44    30.17F
FORT COLLINS   FAIR      50  30  46 S8        30.11F
LONGMONT       FAIR      66  25  21 SW16G30   30.14F
$$

COZ041-046-047-076>085-087-088-230600-
...PIKES PEAK/PALMER DIVIDE AND SOUTHERN FOOTHILLS...

CITY           SKY/WX    TMP DP  RH WIND       PRES   REMARKS
COLO. SPRINGS  MOCLDY    48  26  42 NE5       30.20F
A. F. ACADEMY  FAIR      58  22  25 NE8       30.20F
SCHRIEVER AFB  FAIR      50  24  35 CALM      30.20F
CHEYENNE MTN   FAIR      58  21  24 SW10      30.18F
ELLICOTT         N/A    N/A N/A N/A CALM      30.19S
FALCON         FAIR      49  22  35 W7        30.24S
FORT CARSON    FAIR      49  26  41 W7        30.17F
LIMON          FAIR      34  27  75 N5        30.16R WCI  30
MONUMENT HILL  FAIR      46  23  39 SW7       30.25S
CANON CITY     FAIR      59  27  29 W9        30.20S
WALSENBURG     FAIR      63  16  16 W20G28    30.23S
TRINIDAD       FAIR      50  28  42 W10       30.19R
$$

COZ042>045-048>051-090-091-230600-
...NORTHEAST COLORADO...

CITY           SKY/WX    TMP DP  RH WIND       PRES   REMARKS
GREELEY ARPT   FAIR      49  30  48 SW10      30.13R
AKRON          FAIR      49  28  44 W10       30.10R
BURLINGTON     FAIR      44  27  51 W12       30.09S
WRAY           NOT AVBL
YUMA           FAIR      43  30  61 W9        30.07S
STERLING       FAIR      54  32  43 SE6       30.07R
HOLYOKE        FAIR      45  32  61 W9        30.05S
FORT MORGAN    FAIR      51  26  37 W5        30.12R
$$

COZ086-089-092>099-230600-
...SOUTHEAST COLORADO...

CITY           SKY/WX    TMP DP  RH WIND       PRES   REMARKS
PUEBLO         FAIR      62  25  24 NW13      30.12S
LA JUNTA       FAIR      51  29  42 N5        30.10S
LAMAR          FAIR      40  28  62 SW3       30.06F
SPRINGFIELD      N/A     49  31  49 W6        30.11S
$$



USA.gov is the U.S. government's official web portal to all federal, state and local government web resources and services.